This is the latest recevied weather packets stored in our database for station/object IZ6EGX-13. If no packets are shown the sender has not sent any weather packets the latest 10 day(s).
| Time | Temp. | Humidity | Pressure | Rain* | Wind** | Luminosity | Snow |
|---|---|---|---|---|---|---|---|
| 1777234577 | 18.89° C | 49% | 1018.4 hPa | 0 mm | - | - | - |
| 1777233977 | 18.33° C | 50% | 1018.4 hPa | 0 mm | - | - | - |
| 1777233377 | 18.33° C | 49% | 1018.3 hPa | 0 mm | - | - | - |
| 1777232777 | 18.33° C | 48% | 1018.3 hPa | 0 mm | - | - | - |
| 1777232177 | 18.33° C | 48% | 1018.3 hPa | 0 mm | - | - | - |
| 1777231577 | 18.33° C | 48% | 1018.2 hPa | 0 mm | - | - | - |
| 1777230977 | 17.78° C | 48% | 1018.2 hPa | 0 mm | - | - | - |
| 1777230377 | 18.33° C | 49% | 1018.2 hPa | 0 mm | - | - | - |
| 1777229777 | 18.33° C | 49% | 1018.1 hPa | 0 mm | - | - | - |
| 1777229177 | 18.33° C | 51% | 1018 hPa | 0 mm | - | - | - |
| 1777228577 | 18.33° C | 52% | 1017.9 hPa | 0 mm | - | - | - |
| 1777227977 | 18.33° C | 53% | 1017.8 hPa | 0 mm | - | - | - |
| 1777227377 | 18.33° C | 55% | 1017.7 hPa | 0 mm | - | - | - |
| 1777226777 | 18.33° C | 53% | 1017.6 hPa | 0 mm | - | - | - |
| 1777226177 | 18.33° C | 52% | 1017.4 hPa | 0 mm | - | - | - |
| 1777225577 | 18.89° C | 50% | 1017.2 hPa | 0 mm | - | - | - |
| 1777224978 | 19.44° C | 49% | 1017.1 hPa | 0 mm | - | - | - |
| 1777224377 | 19.44° C | 49% | 1017 hPa | 0 mm | - | - | - |
| 1777223777 | 20° C | 47% | 1016.9 hPa | 0 mm | - | - | - |
| 1777223178 | 20° C | 46% | 1017 hPa | 0 mm | - | - | - |
| 1777222577 | 20.56° C | 46% | 1016.9 hPa | 0 mm | - | - | - |
| 1777221977 | 20.56° C | 45% | 1016.9 hPa | 0 mm | - | - | - |
| 1777221377 | 20.56° C | 44% | 1017 hPa | 0 mm | - | - | - |
| 1777220777 | 20.56° C | 45% | 1017 hPa | 0 mm | - | - | - |
| 1777220177 | 20.56° C | 45% | 1017 hPa | 0 mm | - | - | - |
* Rain latest hour (hover to see other rain measurements)
** Current wind speed in m/s (hover to see current wind gust speed)